Poughkeepsie, NY

7:22 AM EDT on May 25, 2018 (GMT -0400)
Dutchess County

Weather History for KPOU - August, 2014

Change the Weather History Date:

Saturday, August 9, 2014

  Actual Average Record
Temperature  
Mean Temperature 70 °F 72 °F  
Max Temperature 84 °F 84 °F 103 °F (2001)
Min Temperature 55 °F 61 °F 42 °F (1964)
Degree Days  
Heating Degree Days 0 0  
Month to date heating degree days 0 0  
Since 1 June heating degree days 7 54  
Since 1 July heating degree days 0 5  
Cooling Degree Days 5 7  
Month to date cooling degree days 55 70  
Year to date cooling degree days 491 473  
Since 1 June cooling degree days 458 437  
Growing Degree Days 20 (Base 50)    
Moisture  
Dew Point 57 °F    
Average Humidity 70    
Maximum Humidity 93    
Minimum Humidity 35    
Precipitation  
Precipitation 0.00 in 0.15 in 5.17 in (2013)
Month to date precipitation 1.37 1.39  
Year to date precipitation 22.66 27.97  
Sea Level Pressure  
Sea Level Pressure 30.09 in    
Wind  
Wind Speed 1 mph (North)    
Max Wind Speed 6 mph    
Max Gust Speed -    
Visibility 10 miles    
Events      
T = Trace of Precipitation, MM = Missing Value Source: NWS Daily Summary

Daily Weather History Graph

Daily Weather History Graph

Search for Another Location

Airport or City:

Astronomy

Aug. 09, 2014 Rise Set
Actual Time 5:57 AM EDT 8:03 PM EDT
Civil Twilight 5:27 AM EDT 8:33 PM EDT
Nautical Twilight 4:50 AM EDT 9:11 PM EDT
Astronomical Twilight 4:09 AM EDT 9:51 PM EDT
Moon 7:02 PM EDT (8/9) 4:35 AM EDT (8/9)
Length of Visible Light 15h 06m
Length of Day
14h 05m
Waxing Gibbous, 98% of the Moon is Illuminated
Aug 9
Waxing Gibbous
Aug 10
Full
Aug 17
Last Quarter
Aug 25
New
Sep 2
First Quarter

Hourly Weather History & Observations

Time (EDT) Temp. Heat Index Dew Point Humidity Pressure Visibility Wind Dir Wind Speed Gust Speed Precip Events Conditions
1:53 AM 59.0 °F - 57.0 °F 93% 30.06 in 10.0 mi Calm Calm - N/A   Clear
2:53 AM 59.0 °F - 55.9 °F 90% 30.06 in 10.0 mi Calm Calm - N/A   Clear
3:53 AM 57.0 °F - 55.0 °F 93% 30.08 in 10.0 mi Calm Calm - N/A   Clear
4:53 AM 55.9 °F - 53.1 °F 90% 30.09 in 8.0 mi Calm Calm - N/A   Clear
5:53 AM 55.0 °F - 53.1 °F 93% 30.11 in 10.0 mi Calm Calm - N/A   Clear
6:17 AM 55.0 °F - 53.1 °F 93% 30.12 in 10.0 mi Calm Calm - N/A   Partly Cloudy
6:53 AM 57.0 °F - 54.0 °F 89% 30.12 in 10.0 mi Calm Calm - N/A   Mostly Cloudy
7:12 AM 57.9 °F - 55.0 °F 90% 30.13 in 10.0 mi Calm Calm - N/A   Scattered Clouds
7:53 AM 61.0 °F - 57.0 °F 87% 30.13 in 10.0 mi Calm Calm - N/A   Clear
8:53 AM 66.9 °F - 59.0 °F 76% 30.13 in 10.0 mi Calm Calm - N/A   Clear
9:53 AM 71.1 °F - 60.1 °F 68% 30.12 in 10.0 mi Calm Calm - N/A   Clear
10:53 AM 75.0 °F - 60.1 °F 60% 30.11 in 10.0 mi Calm Calm - N/A   Clear
11:53 AM 79.0 °F - 61.0 °F 54% 30.10 in 10.0 mi NNW 4.6 mph - N/A   Clear
1:53 PM 81.0 °F 81.0 °F 57.0 °F 44% 30.08 in 10.0 mi Calm Calm - N/A   Clear
2:53 PM 82.9 °F 82.0 °F 55.0 °F 38% 30.07 in 10.0 mi NNE 3.5 mph - N/A   Partly Cloudy
3:53 PM 84.0 °F 82.6 °F 54.0 °F 35% 30.06 in 10.0 mi North 5.8 mph - N/A   Clear
4:53 PM 82.9 °F 82.0 °F 55.0 °F 38% 30.06 in 10.0 mi NNE 5.8 mph - N/A   Clear
5:53 PM 82.9 °F 81.9 °F 54.0 °F 37% 30.06 in 10.0 mi North 4.6 mph - N/A   Clear
6:53 PM 81.0 °F 81.0 °F 57.0 °F 44% 30.06 in 10.0 mi Calm Calm - N/A   Clear
7:53 PM 72.0 °F - 60.1 °F 66% 30.06 in 10.0 mi Calm Calm - N/A   Clear
8:53 PM 68.0 °F - 62.1 °F 81% 30.08 in 10.0 mi Calm Calm - N/A   Clear
9:53 PM 66.0 °F - 61.0 °F 84% 30.09 in 10.0 mi Calm Calm - N/A   Clear